Weather in Suksun

Russia / Perm Krai     57°08′41″N   57°23′17″E
temp.,
°C
wind,
m/s
gust,
m/s
humid.,
%
clouds,
%
prec.,
mm/h
press.,
hPa
HPBL,
m
28 february, sun
sun2823:00−17ese51191100 0.5 1009502
02:00−16e5119199 0.1 1008472
05:00−16e6119399 0.3 1008493
08:00−15e5119098 0.1 1007509
11:00−14e6109098 0.2 1007588
14:00−12e6989100 0.1 1007632
17:00−12ene5988100 0.3 1009645
20:00−14ene51092100 0.1 1010484
1 march, mon
mon123:00−16ene499498 0.3 1012424
02:00−17ene379688 0.1 1013316
05:00−17ne369694 0.4 1015303
08:00−18ne3597100 0.3 1016198
11:00−16ene349295 0.3 1018333
14:00−13ne238498 0.0 1017475
17:00−12n228699 0.1 1018501
20:00−18wnw1198100 0.0 101720
2 march, tue
tue223:00−19ssw129991 0.1 101720
02:00−20ssw229971 0.0 101620
05:00−21ssw3310073 0.0 101531
08:00−21s389897 0.0 1012171
11:00−16s5109198 0.0 1011433
14:00−12s61087100 0.0 1008542
17:00−11s61094100 0.4 1007572
20:00−12ssw51194100 0.7 1005596
3 march, wed
wed323:00−13s41194100 1.3 1005536
02:00−13s4995100 0.6 1003490
05:00−14s4894100 0.9 1002326
08:00−13sse3696100 0.4 1001250
11:00−10sse3493100 0.8 1000346
14:00−7sse2389100 0.3 999427
17:00−6ene1292100 0.5 999211
20:00−8n2596100 0.4 999145
4 march, thu
thu423:00−11nnw3596100 0.8 1000123
02:00−12nw3796100 0.1 1000167
05:00−12nw3796100 0.3 1001148
08:00−11nw4109595 0.3 1003301
11:00−11nw599496 0.4 1004374
14:00−9nw5891100 0.0 1005532
17:00−7wnw4787100 0.1 1006830
20:00−11wsw3794100 0.1 1008144